Tiempo atmosférico en la estación meteorológica de Vigo Aeropuerto, Pontevedra (261 m.)



Fecha
DESCASC
Temp. máxima en grados centígrados (hora)
DESCASC
Temp. mínima en grados centígrados (hora)
DESCASC
Temp. media en grados centígrados
DESCASC
Racha de viento máxima en m/sg (hora)
DESCASC
Velocidad máxima media en intervalos de 10 minutos(hora)
DESCASC
Precipitaciones diarias en mm
DESCASC
Precipitaciones de 00:00 a 06:00 en mm
DESCASC
Precipitaciones de 06:00 a 12:00 en mm
DESCASC
Precipitaciones de 12:00 a 18:00 en mm
DESCASC
Precipitaciones de 18:00 a 24:00 en mm
DESCASC
03-12-2020 11.2 (20:40) 3.6 (07:10) 7.4 18.06 (22:00) 7.22 (22:10) 11.8 0 0 3.4 8.4
02-12-2020 14.5 (12:30) 7.6 (23:59) 11 12.5 (15:00) 6.94 (15:00) 0 0 0 0 0
01-12-2020 16.9 (16:00) 7.3 (09:00) 12.1 6.11 (00:10) 4.44 (05:20) 0 0 0 0 0
30-11-2020 20.1 (15:50) 9.8 (00:00) 15 6.67 (21:30) 4.17 (14:20) 0 0 0 0 0
29-11-2020 15.6 (13:20) 8.8 (00:00) 12.2 7.22 (00:50) 4.44 (23:10) 0.8 0.8 0 0 0
28-11-2020 14.2 (14:20) 5.1 (00:00) 9.6 10.28 (19:10) 6.11 (19:10) 0.7 0 0 0 0.7
27-11-2020 17.3 (13:40) 9.2 (00:00) 13.2 5.83 (11:20) 4.17 (11:20) 0 0 0 0 0
26-11-2020 16.1 (14:10) 7.7 (00:00) 11.9 11.67 (14:10) 5.83 (15:10) 0.5 0.1 0.4 0 0
25-11-2020 10.9 (00:50) 7.5 (00:00) 9.2 7.78 (12:10) 4.44 (12:20) 5 4.7 0.1 0.2 0
24-11-2020 13.8 (14:00) 6.6 (00:00) 10.2 13.33 (18:00) 8.61 (20:00) 11.6 0 0 0 11.6
23-11-2020 15.7 (16:00) 6.7 (00:00) 11.2 5.83 (11:10) 4.44 (11:20) 0 0 0 0 0
22-11-2020 18.3 (15:20) 7.9 (00:00) 13.1 5.83 (07:00) 3.89 (00:10) 0 0 0 0 0
21-11-2020 17.8 (15:50) 7.7 (00:00) 12.7 5.83 (03:40) 4.17 (23:40) 0 0 0 0 0
20-11-2020 18.7 (16:10) 8.9 (00:00) 13.8 6.67 (08:30) 4.44 (09:50) 0 0 0 0 0
19-11-2020 21.2 (15:30) 9.4 (00:00) 15.3 8.33 (10:30) 5.56 (11:10) 0 0 0 0 0
18-11-2020 19.1 (16:30) 14.6 (00:00) 16.9 11.39 (12:30) 7.5 (07:50) 0 0 0 0 0
17-11-2020 19.5 (16:30) 6.8 (00:00) 13.2 10.83 (20:10) 6.67 (20:30) 0 0 0 0 0
16-11-2020 16.7 (17:10) 7.1 (00:00) 11.9 4.17 (04:10) 3.33 (12:00) 0 0 0 0 0
15-11-2020 17 (04:40) 10.8 (00:00) 13.9 13.33 (08:30) 8.33 (11:00) 18.5 1.4 8.7 7.6 0.8
14-11-2020 15.6 (23:40) 12.3 (00:00) 14 12.5 (11:30) 7.5 (11:50) 7.6 0 0 0.4 7.2
13-11-2020 18.8 (14:50) 9.9 (00:00) 14.3 7.78 (13:00) 6.11 (08:40) 0 0 0 0 0
12-11-2020 19.6 (15:30) 10.2 (00:00) 14.9 6.67 (02:20) 4.72 (04:00) 0 0 0 0 0
11-11-2020 15.8 (15:20) 7.4 (00:00) 11.6 10.28 (17:10) 7.22 (17:20) 0 0 0 0 0
10-11-2020 17 (16:00) 7.2 (00:00) 12.1 6.67 (23:40) 5.56 (23:59) 0 0 0 0 0
09-11-2020 16.5 (15:00) 9.6 (00:00) 13.1 7.78 (07:50) 5.28 (07:50) 6.2 5.2 1 0 0
08-11-2020 17.6 (12:50) 12.6 (00:00) 15.1 14.44 (13:30) 9.17 (06:50) 24.1 12.4 10.5 0.3 0.9
07-11-2020 15.4 (15:20) 11.7 (00:00) 13.5 11.39 (10:50) 8.33 (11:20) 4.2 0 0.1 2.9 1.2
06-11-2020 16 (03:50) 12.2 (00:00) 14.1 12.5 (13:10) 6.67 (13:10) 8.2 0 2.4 5.8 0
05-11-2020 18 (15:10) 10.7 (00:00) 14.3 22.22 (12:30) 13.61 (12:40) 0.3 0 0 0 0.3

Gráficas

Temp. máximas Temp. mínimas Temp. medias Precipitaciones Rachas de viento máximas Velocidades máximas media en intervalos de 10 minutos

Datos horarios

Fecha y hora oficial Temperatura (ºC) Velocidad del viento (km/h) Dirección del viento Racha (km/h) Dirección de racha Precipitación (mm) Presión (hPa) Tendencia (hPa) Humedad (%)
2020-12-04 23:00:00 2.2 5 Noroeste 13 Noroeste 0 972.7 -- 96
2020-12-04 22:00:00 3.1 3 Este 28 Norte 0 972 -- 95
2020-12-04 21:00:00 3.9 13 Norte 24 Noroeste 0.3 971.7 -- 91
2020-12-04 20:00:00 3.6 8 Oeste 11 Oeste 0.1 970.9 -- 93
2020-12-04 19:00:00 3.2 4 Oeste 9 Oeste 0 970.2 -- 96
2020-12-04 18:00:00 3.9 5 Sur 13 Noroeste 0.2 969.2 -- 91
2020-12-04 17:00:00 4.3 6 Noroeste 13 Norte 0 969.6 -- 88
2020-12-04 16:00:00 4.6 7 Nordeste 13 Nordeste 0.5 969.4 -- 93
2020-12-04 15:00:00 4.6 4 Sudoeste 21 Oeste 0.2 969 -- 90
2020-12-04 14:00:00 3.5 12 Noroeste 26 Noroeste 2.2 970 -- 90
2020-12-04 13:00:00 4.2 4 Oeste 26 Norte 0.5 969.8 -- 87
2020-12-04 12:00:00 3.6 14 Nordeste 30 Norte 2.6 970.3 -- 94
2020-12-04 11:00:00 4.2 3 Noroeste 18 Oeste 0.3 969.8 -- 90
2020-12-04 10:00:00 4.1 6 Este 28 Noroeste 0.2 969.8 -- 94
2020-12-04 09:00:00 4.5 9 Noroeste 37 Noroeste 1.1 969.9 -- 87
2020-12-04 08:00:00 4.5 17 Oeste 33 Oeste 2.7 969.8 -- 86
2020-12-04 07:00:00 4.7 5 Noroeste 46 Oeste 2.4 969.7 -- 88
2020-12-04 06:00:00 4.5 8 Sudoeste 41 Noroeste 0.5 969.8 -- 82
2020-12-04 05:00:00 5.1 20 Norte 55 Oeste 0.3 970.9 -- 83
2020-12-04 04:00:00 5.1 0 Calma 67 Noroeste 1 971.2 -- 88
2020-12-04 03:00:00 6.9 13 Oeste 33 Noroeste 0 971.5 -- 78
2020-12-04 02:00:00 7.3 22 Noroeste 52 Oeste 0 972 -- 77
2020-12-04 01:00:00 7.7 22 Noroeste 50 Oeste 0.3 972.7 -- 78
2020-12-04 00:00:00 8.6 18 Oeste 39 Noroeste 0.4 973.3 -- 79
2020-12-03 23:00:00 8.6 23 Oeste 48 Noroeste 1 973.7 -- 90
2020-12-03 22:00:00 10 26 Noroeste 65 Noroeste 2.5 973.5 -- 92
2020-12-03 21:00:00 11.1 20 Oeste 48 Sudoeste 1.3 973.9 -- 84
2020-12-03 20:00:00 10.6 18 Oeste 45 Sudoeste 0.1 975.1 -- 89
2020-12-03 19:00:00 10 19 Sudoeste 46 Sudoeste 3.1 976.4 -- 94
2020-12-03 18:00:00 10 21 Oeste 45 Oeste 1.1 977.5 -- 90
2020-12-03 17:00:00 9.5 12 Oeste 39 Oeste 0.6 978.5 -- 91
2020-12-03 16:00:00 10.3 22 Oeste 39 Oeste 1.3 979.1 -- 91
2020-12-03 15:00:00 7.9 8 Sur 22 Sur 0.4 980.1 -- 95
2020-12-03 14:00:00 7.1 11 Sur 22 Sur 0 981.5 -- 87
2020-12-03 13:00:00 6.9 11 Sur 18 Sudoeste 0 983.1 -- 82
2020-12-03 12:00:00 6.2 14 Sudoeste 22 Sudoeste 0 984.2 -- 86
2020-12-03 11:00:00 6 16 Sudoeste 22 Sudoeste 0 985.3 -- 87
2020-12-03 10:00:00 4.7 11 Sur 15 Sur 0 985.9 -- 92
2020-12-03 09:00:00 4.5 11 Sudoeste 17 Sur 0 985.6 -- 89
2020-12-03 08:00:00 4.4 7 Oeste 9 Oeste 0 986.2 -- 89
2020-12-03 07:00:00 3.8 4 Sudoeste 15 Sudoeste 0 986.4 -- 92
2020-12-03 06:00:00 4.5 10 Sudoeste 24 Sur 0 986.5 -- 90
2020-12-03 05:00:00 4.9 5 Oeste 9 Oeste 0 987.9 -- 87
2020-12-03 04:00:00 4.9 0 Calma 9 Sudoeste 0 988.4 -- 87
2020-12-03 03:00:00 5.7 5 Sur 11 Sudoeste 0 988.4 -- 85
2020-12-03 02:00:00 6 2 Sudeste 13 Norte 0 988.8 -- 83
2020-12-03 01:00:00 6.9 4 Noroeste 11 Nordeste 0 989.6 -- 78
2020-12-03 00:00:00 7.8 0 Calma 13 Nordeste 0 989 -- 75
2020-12-02 23:00:00 8.9 9 Nordeste 17 Nordeste 0 989.8 -- 69
2020-12-02 22:00:00 9.2 12 Nordeste 18 Nordeste 0 989.7 -- 70
2020-12-02 21:00:00 9 3 Este 17 Nordeste 0 989.7 -- 73
2020-12-02 20:00:00 9.8 10 Nordeste 24 Nordeste 0 989.7 -- 69
2020-12-02 19:00:00 10.1 12 Nordeste 24 Nordeste 0 989.5 -- 68
2020-12-02 18:00:00 11 17 Nordeste 39 Nordeste 0 989.5 -- 64
2020-12-02 17:00:00 11.8 19 Nordeste 41 Nordeste 0 989.5 -- 60
2020-12-02 16:00:00 13.1 19 Nordeste 45 Nordeste 0 989.3 -- 56
2020-12-02 15:00:00 13.7 25 Nordeste 45 Nordeste 0 989 -- 44
2020-12-02 14:00:00 13.3 15 Nordeste 32 Norte 0 988.9 -- 48
2020-12-02 13:00:00 13.2 14 Norte 28 Nordeste 0 989.1 -- 55
2020-12-02 12:00:00 13.1 12 Nordeste 28 Norte 0 989.8 -- 63
2020-12-02 11:00:00 11.7 15 Nordeste 26 Norte 0 989.9 -- 68
2020-12-02 10:00:00 9.6 12 Nordeste 21 Nordeste 0 990.3 -- 85
2020-12-02 09:00:00 8.8 8 Nordeste 18 Norte 0 990.1 -- 90
2020-12-02 08:00:00 8.7 9 Nordeste 22 Nordeste 0 989.9 -- 90
2020-12-02 07:00:00 9.2 13 Nordeste 22 Nordeste 0 990 -- 85
2020-12-02 06:00:00 8.5 8 Este 21 Norte 0 989.9 -- 86
2020-12-02 05:00:00 8.6 11 Norte 24 Norte 0 990.2 -- 83
2020-12-02 04:00:00 8.8 13 Nordeste 26 Norte 0 990.8 -- 76
2020-12-02 03:00:00 8.8 13 Nordeste 18 Norte 0 990.5 -- 68
2020-12-02 02:00:00 8.6 6 Nordeste 9 Norte 0 991.1 -- 71
2020-12-02 01:00:00 9.7 4 Este 9 Nordeste 0 991.6 -- 68
2020-12-02 00:00:00 10.3 3 Norte 15 Este 0 991.5 -- 67
2020-12-01 23:00:00 10.6 6 Norte 13 Nordeste 0 991.9 -- 69
2020-12-01 22:00:00 10.6 9 Norte 21 Norte 0 991.9 -- 77
2020-12-01 21:00:00 11.4 13 Norte 17 Norte 0 991.9 -- 76
2020-12-01 20:00:00 11.5 4 Norte 8 Norte 0 992.1 -- 81
2020-12-01 19:00:00 11.3 0 Calma 8 Oeste 0 992.2 -- 83
2020-12-01 18:00:00 13.2 4 Sudoeste 9 Oeste 0 992.1 -- 74
2020-12-01 17:00:00 14.3 6 Sudoeste 11 Sur 0 992.2 -- 73
2020-12-01 16:00:00 16.8 4 Sur 9 Sur 0 992.5 -- 69
2020-12-01 15:00:00 15 7 Sur 13 Sudoeste 0 992.7 -- 71
2020-12-01 14:00:00 15.5 8 Sudoeste 13 Sur 0 992.9 -- 67
2020-12-01 13:00:00 14 6 Sur 15 Sur 0 993.7 -- 69
2020-12-01 12:00:00 11.7 7 Sudoeste 18 Sur 0 994.3 -- 76
2020-12-01 11:00:00 9.2 13 Sur 21 Sur 0 994.3 -- 85
2020-12-01 10:00:00 8.4 14 Sur 18 Sur 0 994 -- 89
2020-12-01 09:00:00 7.4 12 Sudoeste 22 Sudoeste 0 993.8 -- 94
2020-12-01 08:00:00 7.5 13 Sudoeste 18 Sudoeste 0 993.5 -- 95
2020-12-01 07:00:00 7.7 12 Sudoeste 18 Sur 0 993.1 -- 94
2020-12-01 06:00:00 8.6 12 Sudoeste 21 Sudoeste 0 992.9 -- 92
2020-12-01 05:00:00 9.4 12 Sudoeste 18 Sudoeste 0 992.9 -- 88
2020-12-01 04:00:00 9.9 7 Oeste 17 Sudoeste 0 993 -- 86
2020-12-01 03:00:00 10.2 10 Sudoeste 21 Sudoeste 0 992.7 -- 85
2020-12-01 02:00:00 11.1 12 Oeste 18 Oeste 0 993 -- 81
2020-12-01 01:00:00 11.6 10 Sudoeste 22 Sur 0 993.3 -- 78
2020-12-01 00:00:00 11.9 10 Sudoeste 17 Sudoeste 0 993.2 -- 76
2020-11-30 23:00:00 12.1 7 Oeste 15 Este 0 993.4 -- 74
2020-11-30 22:00:00 13.8 4 Este 24 Sudeste 0 992.7 -- 65
2020-11-30 21:00:00 14.4 5 Nordeste 17 Norte 0 992.1 -- 62
2020-11-30 20:00:00 14.3 9 Este 18 Este 0 991.7 -- 65
2020-11-30 19:00:00 14.3 4 Nordeste 18 Sudeste 0 991.1 -- 68
2020-11-30 18:00:00 17.1 8 Este 13 Este 0 990.8 -- 57
2020-11-30 17:00:00 19.3 6 Este 9 Este 0 990.8 -- 54
2020-11-30 16:00:00 19.8 5 Este 15 Sudeste 0 990.4 -- 52
2020-11-30 15:00:00 19.6 6 Sudeste 22 Este 0 990.5 -- 53
2020-11-30 14:00:00 19.2 7 Este 15 Este 0 990.7 -- 51
2020-11-30 13:00:00 18.3 4 Este 13 Nordeste 0 990.9 -- 55
2020-11-30 12:00:00 16.6 6 Este 18 Sudeste 0 991.4 -- 59
2020-11-30 11:00:00 14.4 6 Sudoeste 11 Sudoeste 0 991.1 -- 67
2020-11-30 10:00:00 12.1 9 Sudoeste 15 Sudoeste 0 990.8 -- 73
2020-11-30 09:00:00 10 9 Sudoeste 15 Sudoeste 0 990.1 -- 80
2020-11-30 08:00:00 10.5 5 Sudoeste 13 Sudoeste 0 989.4 -- 78
2020-11-30 07:00:00 10.8 3 Este 11 Norte 0 989.2 -- 77
2020-11-30 06:00:00 11.9 3 Norte 13 Sudeste 0 988.6 -- 69
2020-11-30 05:00:00 13 6 Este 21 Norte 0 988.4 -- 63
2020-11-30 04:00:00 11.9 6 Nordeste 13 Norte 0 988.5 -- 71
2020-11-30 03:00:00 11.9 6 Norte 13 Este 0 988.2 -- 71
2020-11-30 02:00:00 14 6 Norte 17 Norte 0 988 -- 59
2020-11-30 01:00:00 13.8 5 Sur 17 Sudeste 0 987.9 -- 60
2020-11-30 00:00:00 13.4 8 Nordeste 26 Norte 0 987.1 -- 63
2020-11-29 23:00:00 12.5 14 Norte 26 Norte 0 986.6 -- 70
2020-11-29 22:00:00 12.6 7 Norte 17 Norte 0 986.9 -- 68
2020-11-29 21:00:00 12.7 9 Nordeste 21 Este 0 986.4 -- 67
2020-11-29 20:00:00 12.2 13 Este 24 Este 0 985.9 -- 69
2020-11-29 19:00:00 12.9 8 Norte 21 Norte 0 985.1 -- 68
2020-11-29 18:00:00 13.6 5 Norte 15 Nordeste 0 984.6 -- 67
2020-11-29 17:00:00 14.8 7 Nordeste 15 Nordeste 0 984.1 -- 65
2020-11-29 16:00:00 14.3 7 Nordeste 15 Nordeste 0 983.7 -- 65
2020-11-29 15:00:00 14.9 0 Calma 9 Sudoeste 0 983.7 -- 61
2020-11-29 14:00:00 15.3 5 Sur 21 Este 0 983.9 -- 59
2020-11-29 13:00:00 15 5 Este 18 Este 0 983.9 -- 63
2020-11-29 12:00:00 14.2 9 Este 22 Este 0 983.9 -- 69
2020-11-29 11:00:00 13.4 5 Nordeste 11 Nordeste 0 983.3 -- 71
2020-11-29 10:00:00 10.5 5 Sudoeste 15 Sur 0 982.4 -- 83
2020-11-29 09:00:00 9.2 4 Sudoeste 13 Este 0 981.5 -- 84
2020-11-29 08:00:00 10.6 6 Sur 17 Sudeste 0 980.6 -- 79
2020-11-29 07:00:00 10.7 7 Sudeste 17 Sudeste 0 979.8 -- 81
2020-11-29 06:00:00 10 8 Sudoeste 15 Sur 0 979.1 -- 91
2020-11-29 05:00:00 10.1 10 Sudoeste 21 Sur 0 978.7 -- 91
2020-11-29 04:00:00 10 11 Sudoeste 17 Sur 0.4 978.2 -- 94
2020-11-29 03:00:00 10 10 Sur 18 Sur 0.4 977.5 -- 94
2020-11-29 02:00:00 9.8 14 Sur 18 Sudoeste 0 977.3 -- 94
2020-11-29 01:00:00 11.1 15 Sur 26 Sur 0 976.8 -- 82
2020-11-29 00:00:00 10.8 7 Sudoeste 22 Sur 0 976 -- 89
2020-11-28 23:00:00 10.7 10 Sudoeste 13 Sudoeste 0 975.6 -- 90
2020-11-28 22:00:00 11.1 5 Oeste 13 Sudoeste 0 974.9 -- 88
2020-11-28 21:00:00 11.7 8 Sudeste 13 Sudeste 0 974.6 -- 78
2020-11-28 20:00:00 11.2 6 Sudoeste 37 Sur 0.7 974.1 -- 86
2020-11-28 19:00:00 13.8 13 Sur 30 Sudeste 0 973.6 -- 65
2020-11-28 18:00:00 13.5 9 Sudeste 18 Sur 0 972.7 -- 67
2020-11-28 17:00:00 13.7 6 Sudeste 18 Sur 0 972.4 -- 68
2020-11-28 16:00:00 13.8 9 Sur 18 Sur 0 972.2 -- 71
2020-11-28 15:00:00 13.4 12 Sur 22 Sur 0 972.4 -- 72
2020-11-28 14:00:00 13.3 10 Sur 24 Sur 0 972.9 -- 75
2020-11-28 13:00:00 12.1 12 Sur 30 Sur 0 973.6 -- 77
2020-11-28 12:00:00 11 12 Sur 24 Sur 0 974.5 -- 81
2020-11-28 11:00:00 7.3 15 Sur 24 Sur 0 974.8 -- 97
2020-11-28 10:00:00 6 8 Sudoeste 21 Sudoeste 0 974.9 -- 98
2020-11-28 09:00:00 5.2 17 Sudoeste 21 Sudoeste 0 974.8 -- 98
2020-11-28 08:00:00 6.8 15 Sudoeste 22 Sudoeste 0 974.6 -- 97
2020-11-28 07:00:00 7 14 Sudoeste 18 Sudoeste 0 974.4 -- 96
2020-11-28 06:00:00 7.3 14 Sudoeste 21 Sudoeste 0 974.7 -- 96
2020-11-28 05:00:00 7.6 14 Sudoeste 21 Sur 0 975 -- 97
2020-11-28 04:00:00 8 14 Sudoeste 18 Sudoeste 0 975.6 -- 96
2020-11-28 03:00:00 8.6 12 Sudoeste 17 Sudoeste 0 975.9 -- 95
2020-11-28 02:00:00 8.6 11 Sudoeste 17 Sudoeste 0 976.3 -- 94
2020-11-28 01:00:00 9.5 13 Sudoeste 21 Sudoeste 0 976.8 -- 93
2020-11-28 00:00:00 9.6 14 Sudoeste 18 Sur 0 977.2 -- 92
2020-11-27 23:00:00 10.3 11 Sudoeste 18 Sudoeste 0 977.5 -- 89
2020-11-27 22:00:00 10.5 10 Sudoeste 17 Sudoeste 0 977.7 -- 88
2020-11-27 21:00:00 10.8 5 Oeste 13 Noroeste 0 977.9 -- 86
2020-11-27 20:00:00 11 6 Norte 8 Norte 0 978 -- 86
2020-11-27 19:00:00 11 4 Nordeste 11 Noroeste 0 978.1 -- 84
2020-11-27 18:00:00 13 0 Calma 13 Oeste 0 978.1 -- 78
2020-11-27 17:00:00 14.9 9 Oeste 18 Oeste 0 978.2 -- 68
2020-11-27 16:00:00 15.5 10 Noroeste 18 Oeste 0 978.1 -- 67
2020-11-27 15:00:00 15.8 6 Nordeste 13 Nordeste 0 978.5 -- 70
2020-11-27 14:00:00 16.5 6 Nordeste 11 Nordeste 0 979.1 -- 66
2020-11-27 13:00:00 15.4 4 Sudeste 13 Sur 0 979.9 -- 66
2020-11-27 12:00:00 13.3 5 Sur 21 Sudoeste 0 980.8 -- 76
2020-11-27 11:00:00 12.5 8 Sudoeste 11 Sudoeste 0 980.7 -- 80
2020-11-27 10:00:00 10.9 8 Sudoeste 13 Sudoeste 0 980.5 -- 84
2020-11-27 09:00:00 9.3 9 Oeste 15 Sudoeste 0 980.5 -- 87
2020-11-27 08:00:00 9.6 6 Sudoeste 15 Sudoeste 0 980.4 -- 86
2020-11-27 07:00:00 10.2 9 Oeste 15 Sudoeste 0 979.9 -- 84
2020-11-27 06:00:00 10.6 6 Oeste 13 Sudoeste 0 980 -- 85
2020-11-27 05:00:00 11.1 4 Norte 13 Sudoeste 0 979.9 -- 85
2020-11-27 04:00:00 12.8 5 Sudeste 18 Norte 0 980.3 -- 69
2020-11-27 03:00:00 11.4 5 Norte 13 Norte 0 980 -- 73
2020-11-27 02:00:00 9.8 9 Oeste 11 Norte 0 980.1 -- 82
2020-11-27 01:00:00 11.6 8 Norte 13 Norte 0 980.2 -- 72
2020-11-27 00:00:00 10.7 -- -- -- -- 0 980.4 -- 80
2020-11-26 23:00:00 9.7 6 Norte 9 Norte 0 980.2 -- 86
2020-11-26 22:00:00 11.2 7 Nordeste 13 Norte 0 980 -- 81
2020-11-26 21:00:00 11.7 4 Norte 17 Norte 0 979.6 -- 78
2020-11-26 20:00:00 12.7 14 Norte 22 Norte 0 979.6 -- 73
2020-11-26 19:00:00 12.3 12 Norte 18 Norte 0 979.2 -- 76
2020-11-26 18:00:00 12.6 11 Norte 18 Norte 0 978.6 -- 77
2020-11-26 17:00:00 13.5 10 Este 24 Nordeste 0 978.2 -- 72
2020-11-26 16:00:00 14.2 8 Nordeste 42 Este 0 978.1 -- 69
2020-11-26 15:00:00 14.8 15 Este 42 Este 0 978.1 -- 69
2020-11-26 14:00:00 15.3 17 Este 35 Este 0 978.1 -- 71
2020-11-26 13:00:00 13.8 6 Este 11 Sudeste 0 978.6 -- 76
2020-11-26 12:00:00 13 10 Norte 22 Noroeste 0 978.3 -- 75
2020-11-26 11:00:00 11.9 7 Nordeste 24 Este 0 978 -- 82
2020-11-26 10:00:00 11.4 8 Este 21 Nordeste 0 977 -- 83
2020-11-26 09:00:00 9.8 9 Nordeste 21 Norte 0 976.8 -- 90
2020-11-26 08:00:00 9 5 Nordeste 22 Sur 0.1 976.1 -- 95
2020-11-26 07:00:00 10.1 8 Sur 22 Norte 0.3 976.2 -- 90
2020-11-26 06:00:00 11.3 10 Norte 26 Norte 0 975.4 -- 80
2020-11-26 05:00:00 8.3 6 Sudoeste 13 Sudoeste 0 975.7 -- 93
2020-11-26 04:00:00 8.4 4 Sur 11 Sur 0 975.8 -- 92
2020-11-26 03:00:00 8.2 8 Oeste 13 Este 0 976 -- 94
2020-11-26 02:00:00 8.2 13 Este 28 Nordeste 0 976 -- 94
2020-11-26 01:00:00 8.9 9 Nordeste 17 Este 0.1 976.5 -- 90
2020-11-26 00:00:00 8 5 Sur 17 Nordeste 0 977 -- 92
2020-11-25 23:00:00 7.9 10 Norte 15 Norte 0 977.1 -- 91
2020-11-25 22:00:00 7.8 8 Nordeste 17 Norte 0 977.5 -- 93
2020-11-25 21:00:00 8.2 6 Norte 15 Norte 0 978 -- 95
2020-11-25 20:00:00 8.7 9 Norte 15 Norte 0 978.3 -- 88
2020-11-25 19:00:00 8.5 0 Calma 5 Noroeste 0 978.4 -- 94
2020-11-25 18:00:00 8.9 5 Nordeste 18 Norte 0 978.1 -- 88
2020-11-25 17:00:00 8.9 7 Norte 21 Norte 0.1 978.3 -- 91
2020-11-25 16:00:00 8.9 13 Norte 17 Norte 0.1 978.7 -- 94
2020-11-25 15:00:00 9.3 8 Norte 15 Norte 0 979.6 -- 91
2020-11-25 14:00:00 9.7 11 Norte 18 Norte 0 980.7 -- 83
2020-11-25 13:00:00 9.4 14 Norte -- -- -- 981 -- 87
2020-11-25 12:00:00 9.4 14 Norte 24 Norte 0 982 -- 89
2020-11-25 11:00:00 9.1 10 Norte 15 Norte 0 982.4 -- 98
2020-11-25 10:00:00 9.2 8 Nordeste 15 Norte 0 982.2 -- 98
2020-11-25 09:00:00 9 9 Nordeste 17 Nordeste 0 982.1 -- 98
2020-11-25 08:00:00 9.3 7 Norte 13 Norte 0 982 -- 95
2020-11-25 07:00:00 9.3 4 Este 11 Norte 0.1 982 -- 98
2020-11-25 06:00:00 9.5 0 Calma 9 Oeste 0 981.9 -- 96
2020-11-25 05:00:00 9.4 4 Norte 8 Norte 0 982 -- 96
2020-11-25 04:00:00 9.4 2 Norte 11 Este 0 982.4 -- 97
2020-11-25 03:00:00 9.9 3 Norte 26 Oeste 0.3 982.6 -- 95
2020-11-25 02:00:00 10.7 9 Oeste 24 Sur 2.5 982.8 -- 95
2020-11-25 01:00:00 10.9 14 Sur 22 Sur 1.9 982.8 -- 97
2020-11-25 00:00:00 10.3 10 Sudoeste 26 Sur 3.8 983.3 -- 97
2020-11-24 23:00:00 10.8 17 Sur 32 Sur 5.6 984 -- 96
2020-11-24 22:00:00 11.4 19 Sur 46 Sur 2.2 984.3 -- 96
2020-11-24 21:00:00 11.9 30 Sur 42 Sur 0 984.3 -- 90
2020-11-24 20:00:00 12.4 31 Sur 45 Sur 0 984.8 -- 86
2020-11-24 19:00:00 12.6 22 Sur 46 Sur 0 985 -- 85
2020-11-24 18:00:00 13 28 Sur 48 Sur 0 985.5 -- 84
2020-11-24 17:00:00 13.3 18 Sur 39 Sur 0 986 -- 83
2020-11-24 16:00:00 13.4 24 Sur 39 Sur 0 986.6 -- 82
2020-11-24 15:00:00 13.4 13 Sur 37 Sur 0 987.3 -- 80
2020-11-24 14:00:00 13.7 18 Sur 35 Sur 0 988.4 -- 79
2020-11-24 13:00:00 12 17 Sur 26 Sur 0 989.3 -- 83
2020-11-24 12:00:00 10.1 10 Sur 26 Sur 0 990.3 -- 90
2020-11-24 11:00:00 9.8 14 Sur 24 Sur 0 990.5 -- 90
2020-11-24 10:00:00 9 14 Sur 22 Sur 0 990.9 -- 88
2020-11-24 09:00:00 7.3 19 Sur 26 Sur 0 991 -- 94
2020-11-24 08:00:00 7 21 Sur 26 Sur 0 990.9 -- 95
2020-11-24 07:00:00 8.3 10 Sudoeste 17 Sur 0 991.5 -- 91
2020-11-24 06:00:00 8.2 10 Sudoeste 13 Oeste 0 991.7 -- 91
2020-11-24 05:00:00 7.5 9 Sudoeste 15 Sudoeste 0 991.6 -- 95
2020-11-24 04:00:00 7.9 9 Sudoeste 17 Sur 0 991.8 -- 92
2020-11-24 03:00:00 8.4 11 Sudoeste 17 Sudoeste 0 992.1 -- 91
2020-11-24 02:00:00 9.3 11 Sudoeste 18 Sudoeste 0 992.6 -- 88
2020-11-24 01:00:00 8.8 10 Sudoeste 18 Sudoeste 0 993 -- 89
2020-11-24 00:00:00 9.5 10 Sudoeste 15 Sudoeste 0 993.4 -- 86
2020-11-23 23:00:00 9.9 11 Sudoeste 15 Sudoeste 0 993.9 -- 85
2020-11-23 22:00:00 10.1 8 Sudoeste 15 Sudoeste 0 994.1 -- 88
2020-11-23 21:00:00 10.2 9 Sudoeste 13 Sudoeste 0 994.3 -- 89
2020-11-23 20:00:00 9.7 7 Oeste 9 Oeste 0 994.3 -- 88
2020-11-23 19:00:00 10.2 4 Noroeste 8 Noroeste 0 994.4 -- 87
2020-11-23 18:00:00 12.5 4 Oeste 11 Noroeste 0 994.3 -- 82
2020-11-23 17:00:00 15.3 8 Sudoeste 11 Sudoeste 0 994.3 -- 67
2020-11-23 16:00:00 15.5 8 Sur 13 Sur 0 994.5 -- 65
2020-11-23 15:00:00 14.8 9 Sur 13 Sur 0 994.8 -- 61
2020-11-23 14:00:00 12.8 10 Sur 21 Oeste 0 995.5 -- 71
2020-11-23 13:00:00 10.6 9 Sur 18 Sudoeste 0 996.4 -- 78
2020-11-23 12:00:00 9.2 14 Sudoeste 21 Sudoeste 0 997 -- 82
2020-11-23 11:00:00 8.6 13 Sudoeste 18 Sudoeste 0 996.8 -- 84
2020-11-23 10:00:00 8.2 13 Sudoeste 18 Sudoeste 0 996.7 -- 87
2020-11-23 09:00:00 6.7 12 Sudoeste 18 Sudoeste 0 996.2 -- 92
2020-11-23 08:00:00 7.2 9 Sudoeste 13 Sudoeste 0 995.9 -- 88
2020-11-23 07:00:00 7.4 9 Sudoeste 13 Sudoeste 0 995.7 -- 88
2020-11-23 06:00:00 7.8 9 Sudoeste 15 Sudoeste 0 995.7 -- 88
2020-11-23 05:00:00 8.5 12 Sudoeste 15 Sudoeste 0 995.9 -- 88
2020-11-23 04:00:00 8.7 9 Sudoeste 15 Sudoeste 0 996.3 -- 87
2020-11-23 03:00:00 8.8 10 Sudoeste 15 Sudoeste 0 996.4 -- 87
2020-11-23 02:00:00 9.3 7 Oeste 9 Oeste 0 996.6 -- 82
2020-11-23 01:00:00 8.5 2 Oeste 8 Oeste 0 997.1 -- 85
2020-11-23 00:00:00 8.9 6 Oeste 9 Oeste 0 997 -- 84
2020-11-22 23:00:00 9.1 5 Sudoeste 8 Sudoeste 0 997.3 -- 84
2020-11-22 22:00:00 9.5 0 Calma 5 Noroeste 0 997.1 -- 82
2020-11-22 21:00:00 10.6 4 Noroeste 9 Oeste 0 997.1 -- 75
2020-11-22 20:00:00 11.3 8 Norte 9 Norte 0 997 -- 72
2020-11-22 19:00:00 11.1 4 Noroeste 13 Noroeste 0 996.7 -- 74
2020-11-22 18:00:00 13.1 6 Noroeste 9 Noroeste 0 996.2 -- 69
2020-11-22 17:00:00 16.8 3 Nordeste 5 Norte 0 996 -- 57
2020-11-22 16:00:00 18.1 3 Sur 9 Sudoeste 0 995.9 -- 52
2020-11-22 15:00:00 18.1 3 Sudeste 13 Sur 0 996.2 -- 52
2020-11-22 14:00:00 16.6 8 Sur 13 Sur 0 996.7 -- 55
2020-11-22 13:00:00 14.2 9 Sur 15 Sudoeste 0 997.2 -- 63
2020-11-22 12:00:00 12.5 12 Sudoeste 17 Sudoeste 0 997.5 -- 72
2020-11-22 11:00:00 10.3 13 Sudoeste 17 Sur 0 997.5 -- 79
2020-11-22 10:00:00 8.5 14 Sudoeste 17 Sudoeste 0 997.3 -- 86
2020-11-22 09:00:00 8 11 Sudoeste 15 Sudoeste 0 996.8 -- 88
2020-11-22 08:00:00 8.6 10 Sudoeste 18 Sudoeste 0 996.4 -- 89
2020-11-22 07:00:00 8.4 14 Sudoeste 21 Sudoeste 0 996.1 -- 88
2020-11-22 06:00:00 8.7 13 Sudoeste 18 Sudoeste 0 995.8 -- 88
2020-11-22 05:00:00 9.7 9 Sudoeste 13 Sudoeste 0 995.6 -- 81
2020-11-22 04:00:00 9.4 9 Sudoeste 13 Sudoeste 0 995.6 -- 87
2020-11-22 03:00:00 9.8 10 Sudoeste 13 Sudoeste 0 995.2 -- 87
2020-11-22 02:00:00 10.2 12 Sudoeste 15 Sudoeste 0 995.1 -- 82
2020-11-22 01:00:00 11.2 12 Sudoeste 18 Sudoeste 0 994.8 -- 79
2020-11-22 00:00:00 10.8 14 Sudoeste 21 Sudoeste 0 995.1 -- 85
2020-11-21 23:00:00 11.4 11 Sudoeste 17 Sudoeste 0 995.1 -- 79
2020-11-21 22:00:00 11.2 11 Sudoeste 15 Sudoeste 0 995 -- 80
2020-11-21 21:00:00 11 5 Oeste 13 Oeste 0 994.9 -- 80
2020-11-21 20:00:00 11.4 5 Oeste 8 Noroeste 0 994.7 -- 79
2020-11-21 19:00:00 12 5 Norte 9 Oeste 0 994.3 -- 78
2020-11-21 18:00:00 13.8 5 Noroeste 8 Noroeste 0 994.1 -- 76
2020-11-21 17:00:00 17.4 6 Sudoeste 11 Sur 0 994 -- 57
2020-11-21 16:00:00 17.6 6 Sur 15 Sur 0 994 -- 54
2020-11-21 15:00:00 17.2 9 Sur 17 Sur 0 994.3 -- 57
2020-11-21 14:00:00 16 10 Sur 15 Sur 0 995 -- 62
2020-11-21 13:00:00 14.6 9 Sur 18 Sudoeste 0 995.7 -- 67
2020-11-21 12:00:00 12.5 12 Sur 18 Sur 0 996.2 -- 71
2020-11-21 11:00:00 10.5 11 Sur 18 Sudoeste 0 996 -- 77
2020-11-21 10:00:00 9 12 Sudoeste 17 Sudoeste 0 995.7 -- 82
2020-11-21 09:00:00 7.9 12 Sudoeste 21 Oeste 0 995.5 -- 86
2020-11-21 08:00:00 8.1 10 Oeste 18 Sudoeste 0 995.1 -- 85
2020-11-21 07:00:00 8.6 8 Sudoeste 15 Sudoeste 0 995 -- 84
2020-11-21 06:00:00 9 7 Oeste 15 Sudoeste 0 995.4 -- 82
2020-11-21 05:00:00 8.9 8 Sudoeste 21 Sur 0 995.6 -- 85
2020-11-21 04:00:00 9.3 10 Sudoeste 21 Sur 0 995.9 -- 87
2020-11-21 03:00:00 9.9 10 Sudoeste 18 Sudoeste 0 996.1 -- 85
2020-11-21 02:00:00 10.2 12 Sudoeste 18 Sur 0 996.2 -- 87
2020-11-21 01:00:00 10.7 6 Sudoeste 11 Sur 0 996.7 -- 84
2020-11-21 00:00:00 11.3 6 Oeste 15 Sur 0 997 -- 83
2020-11-20 23:00:00 12.1 11 Sudoeste 21 Sudoeste 0 997.3 -- 82
2020-11-20 22:00:00 11.5 5 Oeste 11 Oeste 0 997.6 -- 85
2020-11-20 21:00:00 12.2 3 Noroeste 11 Noroeste 0 997.7 -- 83
2020-11-20 20:00:00 12.5 3 Noroeste 13 Sudoeste 0 997.7 -- 84
2020-11-20 19:00:00 13.3 8 Oeste 11 Oeste 0 997.8 -- 83
2020-11-20 18:00:00 15.3 4 Oeste 11 Sudoeste 0 997.6 -- 79
2020-11-20 17:00:00 18 9 Sur 11 Sur 0 997.1 -- 66
2020-11-20 16:00:00 18.5 4 Sur 13 Sudoeste 0 997.2 -- 65
2020-11-20 15:00:00 18.2 8 Sur 11 Sur 0 998 -- 67
2020-11-20 14:00:00 17 4 Sudeste 18 Sur 0 998.8 -- 70
2020-11-20 13:00:00 15.6 10 Sur 21 Sur 0 999.4 -- 75
2020-11-20 12:00:00 14.4 8 Sur 18 Sur 0 1000.2 -- 79
2020-11-20 11:00:00 12.7 11 Sur 22 Sur 0 1000.1 -- 85
2020-11-20 10:00:00 10.7 16 Sur 24 Sur 0 1000.3 -- 91
2020-11-20 09:00:00 9.2 8 Sur 24 Sur 0 1000.3 -- 95
2020-11-20 08:00:00 9.1 13 Sudoeste 22 Sur 0 1000.3 -- 96
2020-11-20 07:00:00 9 6 Sur 22 Sudoeste 0 1000.1 -- 95
2020-11-20 06:00:00 9.3 10 Sur 17 Sur 0 1000.1 -- 96
2020-11-20 05:00:00 9 3 Nordeste 17 Sur 0 1000.6 -- 97
2020-11-20 04:00:00 9.3 6 Sur 17 Sur 0 1000.8 -- 96
2020-11-20 03:00:00 9.7 7 Sur 22 Sudoeste 0 1001.2 -- 96
2020-11-20 02:00:00 10 3 Este 13 Sur 0 1001.8 -- 96
2020-11-20 01:00:00 10.5 7 Sur 18 Sur 0 1002.1 -- 97
2020-11-20 00:00:00 9.5 4 Sudoeste 9 Nordeste 0 1002.6 -- 96
2020-11-19 23:00:00 10.5 7 Nordeste 8 Norte 0 1002.6 -- 95
2020-11-19 22:00:00 11 0 Calma 8 Nordeste 0 1002.2 -- 95
2020-11-19 21:00:00 12 0 Calma 11 Nordeste 0 1002 -- 91
2020-11-19 20:00:00 13.4 8 Nordeste 22 Norte 0 1002.2 -- 90
2020-11-19 19:00:00 14.6 8 Nordeste 26 Norte 0 1002.2 -- 87
2020-11-19 18:00:00 16.3 12 Norte 22 Norte 0 1001.7 -- 83
2020-11-19 17:00:00 19.6 5 Nordeste 15 Nordeste 0 1001.5 -- 73
2020-11-19 16:00:00 20.9 4 Sur 9 Este 0 1001.3 -- 68
2020-11-19 15:00:00 20.7 3 Sur 13 Sur 0 1001.8 -- 69
2020-11-19 14:00:00 19.5 7 Sur 15 Sur 0 1002.2 -- 72
2020-11-19 13:00:00 19.3 5 Sudeste 13 Este 0 1002.7 -- 72
2020-11-19 12:00:00 17.2 4 Sur 30 Sur 0 1002.5 -- 79
2020-11-19 11:00:00 14.9 15 Sur 30 Sur 0 1002 -- 86
2020-11-19 10:00:00 12.9 15 Sur 26 Sur 0 1002 -- 95
2020-11-19 09:00:00 11.7 5 Sur 11 Norte 0 1001.5 -- 97
2020-11-19 08:00:00 12 6 Nordeste 17 Norte 0 1000.9 -- 96
2020-11-19 07:00:00 11.8 6 Sur 9 Oeste 0 999.6 -- 97
2020-11-19 06:00:00 11.9 5 Este 13 Nordeste 0 999.5 -- 96
2020-11-19 05:00:00 12.6 9 Nordeste 13 Norte 0 999.3 -- 96
2020-11-19 04:00:00 13.2 8 Nordeste 13 Norte 0 998.8 -- 95
2020-11-19 03:00:00 13.2 4 Sudoeste 9 Sudoeste 0 998.5 -- 94
2020-11-19 02:00:00 14.2 7 Noroeste -- -- 0 998.7 -- 90
2020-11-19 01:00:00 13.6 5 Norte 9 Noroeste 0 999.3 -- 92
2020-11-19 00:00:00 14.9 3 Noroeste 13 Sudoeste 0 999.2 -- 91
2020-11-18 23:00:00 15.4 5 Oeste 17 Sudoeste 0 998.7 -- 89
2020-11-18 22:00:00 15.3 2 Sudeste 11 Nordeste 0 997.9 -- 88
2020-11-18 21:00:00 15.8 9 Norte 17 Norte 0 997.2 -- 84
2020-11-18 20:00:00 15.6 5 Norte 13 Nordeste 0 997.1 -- 87
2020-11-18 19:00:00 15.5 9 Oeste 11 Oeste 0 996.4 -- 89
2020-11-18 18:00:00 16.8 5 Oeste 11 Sur 0 995.4 -- 86
2020-11-18 17:00:00 18.1 9 Sur 17 Sudeste 0 994.5 -- 79
2020-11-18 16:00:00 18.5 11 Sur 24 Sur 0 994.2 -- 77
2020-11-18 15:00:00 17.6 14 Sur 24 Sur 0 994.1 -- 81
2020-11-18 14:00:00 17.3 15 Sur 41 Sur 0 994.6 -- 84
2020-11-18 13:00:00 16.5 25 Sur 41 Sur 0 994.7 -- 87
2020-11-18 12:00:00 15.7 23 Sur 33 Sur 0 994.8 -- 93
2020-11-18 11:00:00 15.5 22 Sur 35 Sur 0 994.5 -- 96
2020-11-18 10:00:00 15.1 25 Sur 37 Sur 0 994 -- 98
2020-11-18 09:00:00 15 24 Sur 37 Sur 0 993.3 -- 98
2020-11-18 08:00:00 15 26 Sur 37 Sur 0 992.8 -- 98
2020-11-18 07:00:00 15 23 Sur 33 Sur 0 992.6 -- 98
2020-11-18 06:00:00 14.9 17 Sur 35 Sur 0 992.2 -- 98
2020-11-18 05:00:00 14.8 21 Sur 35 Sur 0 992.3 -- 98
2020-11-18 04:00:00 14.7 22 Sur 32 Sur 0 992.3 -- 98
2020-11-18 03:00:00 14.7 22 Sur 39 Sur 0 992.1 -- 98
2020-11-18 02:00:00 14.7 19 Sur 32 Sur 0 992.2 -- 96
2020-11-18 01:00:00 14.7 12 Sur 28 Sudeste 0 992.3 -- 94
2020-11-18 00:00:00 15.2 12 Sudeste 28 Sur 0 992.2 -- 89
2020-11-17 23:00:00 15.4 18 Sur 33 Sur 0 992.4 -- 86
2020-11-17 22:00:00 15.3 23 Sur 39 Sur 0 992.3 -- 87
2020-11-17 21:00:00 15.1 20 Sur 39 Sur 0 992.5 -- 88
2020-11-17 20:00:00 14.8 21 Sur 37 Sur 0 992.4 -- 90
2020-11-17 19:00:00 14.7 15 Sudoeste 22 Sur 0 992.1 -- 88
2020-11-17 18:00:00 16.2 8 Sudoeste 15 Oeste 0 992 -- 75
2020-11-17 17:00:00 19.3 6 Sur 26 Sur 0 991.8 -- 61
2020-11-17 16:00:00 18.4 7 Sur 18 Sur 0 991.5 -- 65
2020-11-17 15:00:00 18.9 9 Sur 18 Sur 0 991.8 -- 61
2020-11-17 14:00:00 17.9 12 Sur 18 Sudoeste 0 992.3 -- 58
2020-11-17 13:00:00 15.6 13 Sudoeste 21 Sur 0 993.1 -- 70
2020-11-17 12:00:00 12.4 14 Sudoeste 24 Sur 0 993.6 -- 83
2020-11-17 11:00:00 11.2 13 Sudoeste 21 Sudoeste 0 993.7 -- 86
2020-11-17 10:00:00 8.5 15 Sudoeste 24 Sudoeste 0 993.5 -- 97
2020-11-17 09:00:00 7 15 Sudoeste 21 Sudoeste 0 993.1 -- 99
2020-11-17 08:00:00 7.2 14 Sudoeste 24 Sudoeste 0 992.9 -- 99
2020-11-17 07:00:00 7.4 14 Sudoeste 21 Oeste 0 993 -- 99
2020-11-17 06:00:00 7.1 13 Sudoeste 22 Sudoeste 0 993.1 -- 99
2020-11-17 05:00:00 7.7 11 Sur 21 Sudoeste 0 993.3 -- 98
2020-11-17 04:00:00 8.3 14 Sudoeste 21 Sur 0 993.5 -- 98
2020-11-17 03:00:00 9.5 12 Sur 21 Sur 0 993.8 -- 97
2020-11-17 02:00:00 9.1 8 Sudoeste -- -- -- 994.4 -- 97
2020-11-17 01:00:00 9.2 3 Sudoeste 9 Sudoeste 0 994.9 -- 96
2020-11-17 00:00:00 9.5 3 Oeste 9 Sudoeste 0 995 -- 95
2020-11-16 23:00:00 10.3 7 Sudoeste 13 Sudoeste 0 995 -- 94
2020-11-16 22:00:00 9.5 5 Oeste 8 Oeste 0 994.6 -- 93
2020-11-16 21:00:00 10 5 Oeste 13 Sudoeste 0 994.6 -- 92
2020-11-16 20:00:00 10.6 6 Norte 8 Norte 0 994.4 -- 90
2020-11-16 19:00:00 10.7 3 Noroeste 9 Oeste 0 994.3 -- 90
2020-11-16 18:00:00 12.9 -- -- -- -- 0 994.2 -- 81
2020-11-16 17:00:00 16.4 5 Este 8 Este 0 994.3 -- 65
2020-11-16 16:00:00 16.4 3 Este 9 Este 0 994.2 -- 64
2020-11-16 15:00:00 16 6 Este 11 Este 0 994.3 -- 70
2020-11-16 14:00:00 15 6 Este 11 Este 0 994.7 -- 80
2020-11-16 13:00:00 12 6 Sudoeste 11 Sudoeste 0 995.4 -- 91
2020-11-16 12:00:00 10.3 12 Sur 13 Sudoeste 0 995.7 -- 96
2020-11-16 11:00:00 11.1 8 Sur 11 Sur 0 995.4 -- 91
2020-11-16 10:00:00 9.1 2 Noroeste 8 Oeste 0 995 -- 98
2020-11-16 09:00:00 7.3 5 Norte 9 Norte 0 994.5 -- 99
2020-11-16 08:00:00 7.3 2 Oeste 8 Oeste 0 993.6 -- 99
2020-11-16 07:00:00 7.9 5 Noroeste 8 Norte 0 993.9 -- 99
2020-11-16 06:00:00 9.1 7 Norte 11 Noroeste 0 993.7 -- 99
2020-11-16 05:00:00 9.3 6 Norte 15 Nordeste 0 993.5 -- 99
2020-11-16 04:00:00 10.3 9 Norte 13 Norte 0 993.6 -- 99
2020-11-16 03:00:00 10.1 5 Noroeste 9 Noroeste 0 993.3 -- 98
2020-11-16 02:00:00 9.8 2 Noroeste -- -- -- 993.3 -- 97
2020-11-16 01:00:00 9.8 0 Calma 8 Oeste 0 992.5 -- 97
2020-11-16 00:00:00 10.9 6 Noroeste 9 Oeste 0 992.8 -- 95
2020-11-15 23:00:00 12.3 3 Noroeste 8 Noroeste 0 992.4 -- 95
2020-11-15 22:00:00 12.5 2 Oeste 15 Oeste 0.1 992.3 -- 96
2020-11-15 21:00:00 12.6 6 Noroeste 18 Oeste 0 991.5 -- 94
2020-11-15 20:00:00 12.7 4 Norte 8 Norte 0 990.6 -- 94
2020-11-15 19:00:00 13 8 Oeste 15 Sur 0.7 989.7 -- 98
2020-11-15 18:00:00 13.3 9 Sur 13 Sur 0 989.2 -- 97
2020-11-15 17:00:00 13.6 5 Sur 11 Sudoeste 0 988.9 -- 96
2020-11-15 16:00:00 13.5 9 Sudoeste 15 Sudoeste 1.7 988.6 -- 96
2020-11-15 15:00:00 13.4 10 Noroeste 24 Oeste 4.4 988.2 -- 94
2020-11-15 14:00:00 13.5 17 Oeste 28 Oeste 1.5 987.9 -- 94
2020-11-15 13:00:00 16.5 24 Sudoeste 39 Sudoeste 0 987.5 -- 90
2020-11-15 12:00:00 16.8 22 Sudoeste 39 Sudoeste 0 987.2 -- 89
2020-11-15 11:00:00 16.7 30 Sudoeste 48 Sudoeste 0 986.8 -- 94
2020-11-15 10:00:00 16.8 25 Sudoeste 42 Sudoeste 0 986.5 -- 95
2020-11-15 09:00:00 16.8 22 Sudoeste 48 Sudoeste 0.1 985.9 -- 95
2020-11-15 08:00:00 16.7 26 Sudoeste 41 Sudoeste 1.9 985.3 -- 95
2020-11-15 07:00:00 16.7 27 Sudoeste 42 Sudoeste 6.7 984.9 -- 95
2020-11-15 06:00:00 17 28 Sudoeste 42 Sudoeste 0.1 984.7 -- 92
2020-11-15 05:00:00 16.9 26 Sudoeste 45 Sur 0.2 984.7 -- 93
2020-11-15 04:00:00 16.7 23 Sudoeste 41 Sudoeste 0.4 985.1 -- 94
2020-11-15 03:00:00 16.1 15 Sur 33 Sudoeste 0.3 985 -- 97
2020-11-15 02:00:00 15.8 15 Sur -- -- -- 985.4 -- 98
2020-11-15 01:00:00 15.6 14 Sur 26 Sur 0 985.5 -- 99
2020-11-15 00:00:00 15.5 19 Sur 28 Sur 0 985.8 -- 99
2020-11-14 23:00:00 15.2 18 Sur 28 Sur 0.9 986.1 -- 99
2020-11-14 22:00:00 14.8 15 Sur 24 Sur 4.6 986 -- 99
2020-11-14 21:00:00 14.7 12 Sur 24 Sur 1.4 985.9 -- 99
2020-11-14 20:00:00 14.6 18 Sur 26 Sur 0.3 986.3 -- 98
2020-11-14 19:00:00 14.7 13 Sur 32 Sudoeste 0 986.1 -- 96
2020-11-14 18:00:00 15.1 15 Sur 28 Sur 0 986 -- 98
2020-11-14 17:00:00 15.2 18 Sur 30 Sur 0.2 985.4 -- 98
2020-11-14 16:00:00 14.9 18 Sur 39 Sur 0.2 985 -- 98
2020-11-14 15:00:00 14.7 23 Sur 37 Sur 0 984.9 -- 97
2020-11-14 14:00:00 14.6 26 Sur 35 Sur 0 985.4 -- 95
2020-11-14 13:00:00 14.6 20 Sur 37 Sur 0 985.8 -- 93
2020-11-14 12:00:00 15.2 20 Sur 45 Sur 0 986.3 -- 86
2020-11-14 11:00:00 15 21 Sur 37 Sur 0 985.8 -- 86
2020-11-14 10:00:00 14.6 18 Sur 30 Sur 0 985.8 -- 85
2020-11-14 09:00:00 14.1 14 Sur 37 Sur 0 985.6 -- 83
2020-11-14 08:00:00 13.8 23 Sur 37 Sur 0 985 -- 81
2020-11-14 07:00:00 13.7 17 Sudoeste 28 Sur 0 985 -- 81
2020-11-14 06:00:00 13.8 16 Sudoeste 22 Sudoeste 0 985.3 -- 79
2020-11-14 05:00:00 13.8 12 Sudoeste 22 Sudoeste 0 985.4 -- 80
2020-11-14 04:00:00 13.8 14 Sudoeste 21 Sudoeste 0 985.7 -- 80
2020-11-14 03:00:00 13.5 14 Sudoeste 21 Sudoeste 0 985.9 -- 82
2020-11-14 02:00:00 13.2 11 Sudoeste -- -- -- 986.3 -- 86
2020-11-14 01:00:00 12.5 12 Sudoeste 15 Sudoeste 0 986.9 -- 89
2020-11-14 00:00:00 12.9 12 Sudoeste 17 Sudoeste 0 987.2 -- 88
2020-11-13 23:00:00 13.3 12 Sudoeste 21 Sur 0 987.1 -- 87
2020-11-13 22:00:00 14.2 14 Sur 22 Sur 0 987.2 -- 83
2020-11-13 21:00:00 14.5 17 Sudoeste 22 Sur 0 987.4 -- 81
2020-11-13 20:00:00 14 18 Sur 22 Sur 0 987.1 -- 85
2020-11-13 19:00:00 14.6 13 Sur 21 Sur 0 987 -- 83
2020-11-13 18:00:00 16.6 13 Sur 21 Sur 0 986.9 -- 73
2020-11-13 17:00:00 17.4 14 Sur 22 Sudoeste 0 987 -- 69
2020-11-13 16:00:00 18.4 15 Sur 24 Sur 0 987.1 -- 64
2020-11-13 15:00:00 18.6 13 Sur 21 Sur 0 987.5 -- 64
2020-11-13 14:00:00 18.3 13 Sur 24 Sur 0 988 -- 63
2020-11-13 13:00:00 17.5 17 Sur 28 Sur 0 988.4 -- 63
2020-11-13 12:00:00 16.7 13 Sur 18 Sur 0 988.8 -- 64
2020-11-13 11:00:00 14.9 13 Sur 21 Sur 0 988.6 -- 71
2020-11-13 10:00:00 13.5 15 Sur 22 Sur 0 988.3 -- 75
2020-11-13 09:00:00 10.9 18 Sur 24 Sur 0 987.7 -- 87
2020-11-13 08:00:00 10.9 12 Sudoeste 18 Sur 0 987.4 -- 85
2020-11-13 07:00:00 11.4 14 Sur 18 Sur 0 987.4 -- 83
2020-11-13 06:00:00 10.8 12 Sudoeste 18 Sur 0 987.6 -- 89
2020-11-13 05:00:00 11.5 9 Sudoeste 17 Sur 0 987.7 -- 86
2020-11-13 04:00:00 12.1 8 Sudoeste 11 Sudoeste 0 987.9 -- 83
2020-11-13 03:00:00 12.5 11 Sudoeste 15 Sudoeste 0 987.9 -- 81
2020-11-13 02:00:00 12.6 11 Sudoeste -- -- -- 987.9 -- 83
2020-11-13 01:00:00 13 10 Sudoeste 13 Sudoeste 0 988.4 -- 78
2020-11-13 00:00:00 13.6 11 Sudoeste 13 Sudoeste 0 988.4 -- 76
2020-11-12 23:00:00 13.7 9 Sur 15 Sur 0 988.2 -- 78
2020-11-12 22:00:00 14.1 12 Sur 17 Sur 0 988.2 -- 76
2020-11-12 21:00:00 15.3 12 Sur 17 Sur 0 988 -- 71
2020-11-12 20:00:00 14.7 11 Sur 17 Sur 0 988.3 -- 79
2020-11-12 19:00:00 15.8 11 Sur 15 Sur 0 988.1 -- 71
2020-11-12 18:00:00 15.9 7 Sur 15 Sur 0 988.2 -- 74
2020-11-12 17:00:00 17.6 9 Sudoeste 21 Sur 0 988.1 -- 68
2020-11-12 16:00:00 19.4 12 Sur 22 Sudoeste 0 988.1 -- 59
2020-11-12 15:00:00 19 13 Sur 22 Sur 0 988.5 -- 61
2020-11-12 14:00:00 18.5 13 Sur 22 Sudoeste 0 989.2 -- 62
2020-11-12 13:00:00 17.7 11 Sur 18 Sur 0 990 -- 68
2020-11-12 12:00:00 16.4 11 Sudoeste 21 Sur 0 990.6 -- 70
2020-11-12 11:00:00 15.3 13 Sur 18 Sur 0 990.8 -- 71
2020-11-12 10:00:00 14.1 12 Sur 21 Sur 0 990.8 -- 75
2020-11-12 09:00:00 11.5 14 Sudoeste 18 Sur 0 990.7 -- 85
2020-11-12 08:00:00 10.4 9 Sudoeste 21 Sur 0 990.6 -- 88
2020-11-12 07:00:00 10.6 15 Sur 17 Sur 0 990.7 -- 88
2020-11-12 06:00:00 11.3 12 Sudoeste 17 Sur 0 990.5 -- 87
2020-11-12 05:00:00 11.7 13 Sudoeste 22 Sur 0 990.5 -- 86
2020-11-12 04:00:00 12.8 17 Sur 24 Sur 0 990.8 -- 82
2020-11-12 03:00:00 12.8 15 Sur 24 Sur 0 991.1 -- 84
2020-11-12 02:00:00 13.2 13 Sur -- -- -- 991.3 -- 85
2020-11-12 01:00:00 13.3 14 Sur 21 Sur 0 991.6 -- 86
2020-11-12 00:00:00 13.4 14 Sur 26 Sur 0 991.6 -- 85
2020-11-11 23:00:00 13.4 16 Sur 28 Sur 0 991.5 -- 84
2020-11-11 22:00:00 13.5 13 Sur 24 Sur 0 991.4 -- 83
2020-11-11 21:00:00 13.4 13 Sur 24 Sur 0 991.2 -- 85
2020-11-11 20:00:00 13.5 17 Sur 30 Sur 0 991.1 -- 84
2020-11-11 19:00:00 13.6 15 Sur 22 Sur 0 990.8 -- 84
2020-11-11 18:00:00 14.2 16 Sur 37 Sur 0 990.5 -- 80
2020-11-11 17:00:00 14.9 25 Sur 35 Sur 0 990.5 -- 76
2020-11-11 16:00:00 15.1 17 Sur 33 Sur 0 990.5 -- 74
2020-11-11 15:00:00 15.4 24 Sur 35 Sudoeste 0 990.5 -- 71
2020-11-11 14:00:00 13.9 18 Sudoeste 30 Sur 0 990.5 -- 74
2020-11-11 13:00:00 13.2 18 Sur 24 Sur 0 991.4 -- 74
2020-11-11 12:00:00 12.9 16 Sur 22 Sur 0 992 -- 74
2020-11-11 11:00:00 11.8 15 Sur 24 Sur 0 992 -- 79
2020-11-11 10:00:00 10.5 15 Sur 22 Sur 0 991.7 -- 85
2020-11-11 09:00:00 9 17 Sudoeste 22 Sur 0 991.2 -- 89
2020-11-11 08:00:00 8.1 18 Sudoeste 22 Sudoeste 0 991 -- 93
2020-11-11 07:00:00 8.1 18 Sudoeste 26 Sur 0 991.3 -- 95
2020-11-11 06:00:00 7.8 18 Sur 22 Sur 0 991.6 -- 97
2020-11-11 05:00:00 7.7 15 Sudoeste 22 Sur 0 992 -- 98
2020-11-11 04:00:00 8.5 19 Sur 24 Sur 0 992.5 -- 96
2020-11-11 03:00:00 8.5 15 Sudoeste 21 Sur 0 993.2 -- 97
2020-11-11 02:00:00 9.4 18 Sudoeste -- -- -- 993.4 -- 95
2020-11-11 01:00:00 9.7 14 Sudoeste 24 Sur 0 993.8 -- 95
2020-11-11 00:00:00 10.1 20 Sur 24 Sur 0 993.8 -- 95
2020-11-10 23:00:00 10.3 17 Sudoeste 22 Sur 0 994.6 -- 95
2020-11-10 22:00:00 10.8 10 Sudoeste 13 Sudoeste 0 994.8 -- 93
2020-11-10 21:00:00 10.4 6 Oeste 17 Oeste 0 994.9 -- 92
2020-11-10 20:00:00 10.8 9 Oeste 13 Oeste 0 995 -- 91
2020-11-10 19:00:00 12 8 Oeste 11 Oeste 0 994.7 -- 87
2020-11-10 18:00:00 14.1 4 Oeste 9 Sudoeste 0 994.9 -- 80
2020-11-10 17:00:00 16.5 5 Sur 9 Sur 0 995.1 -- 70
2020-11-10 16:00:00 16.9 3 Sudeste 11 Sur 0 995.4 -- 67
2020-11-10 15:00:00 15.8 6 Sur 15 Sur 0 995.5 -- 71
2020-11-10 14:00:00 14.4 9 Sur 18 Sur 0 996.2 -- 77
2020-11-10 13:00:00 11.7 10 Sudoeste 15 Sur 0 996.6 -- 91
2020-11-10 12:00:00 9.5 12 Sudoeste 15 Sudoeste 0 997.1 -- 97
2020-11-10 11:00:00 8.5 8 Sudoeste 11 Sudoeste 0 997.3 -- 98
2020-11-10 10:00:00 7.8 8 Sudoeste 13 Sudoeste 0 997.1 -- 98
2020-11-10 09:00:00 7.4 10 Sudoeste 13 Sudoeste 0 996.7 -- 98
2020-11-10 08:00:00 8.4 9 Sudoeste 13 Sudoeste 0 996.2 -- 98
2020-11-10 07:00:00 8.8 10 Sudoeste 15 Sudoeste 0 996.1 -- 99
2020-11-10 06:00:00 9 10 Sudoeste 15 Sudoeste 0 995.9 -- 98
2020-11-10 05:00:00 9.4 10 Sudoeste 17 Sudoeste 0 995.7 -- 98
2020-11-10 04:00:00 9.5 10 Sudoeste 13 Sudoeste 0 995.7 -- 97
2020-11-10 03:00:00 10.2 6 Sudoeste 9 Oeste 0 995.6 -- 96
2020-11-10 02:00:00 9.5 8 Oeste -- -- -- 996 -- 96
2020-11-10 01:00:00 9.7 6 Sudoeste 11 Sudoeste 0 995.8 -- 97
2020-11-10 00:00:00 9.7 5 Oeste 8 Oeste 0 995.6 -- 95
2020-11-09 23:00:00 10.6 4 Oeste 5 Oeste 0 995.7 -- 95
2020-11-09 22:00:00 10.9 5 Oeste 21 Oeste 0 995.4 -- 92
2020-11-09 21:00:00 10.7 3 Oeste 9 Sudoeste 0 995 -- 93
2020-11-09 20:00:00 10.3 6 Oeste 11 Sudoeste 0 994.6 -- 93
2020-11-09 19:00:00 12.2 4 Nordeste 15 Oeste 0 994 -- 84
2020-11-09 18:00:00 13.7 9 Oeste 21 Oeste 0 993.3 -- 78
2020-11-09 17:00:00 14.1 17 Oeste 24 Oeste 0 992.9 -- 76
2020-11-09 16:00:00 15.2 15 Oeste 26 Oeste 0 992.5 -- 80
2020-11-09 15:00:00 16.4 12 Sudoeste 22 Sudoeste 0 992.1 -- 76
2020-11-09 14:00:00 15.1 12 Oeste 24 Oeste 0 991.9 -- 80
2020-11-09 13:00:00 15.2 15 Oeste 28 Oeste 0 991.9 -- 81
2020-11-09 12:00:00 13.7 11 Sudoeste 21 Oeste 0 991.7 -- 92
2020-11-09 11:00:00 13.7 9 Sur 17 Sur 0.3 991.4 -- 96
2020-11-09 10:00:00 13.5 5 Sur 13 Sur 0 990.9 -- 93
2020-11-09 09:00:00 13 8 Sur 28 Sudoeste 0 990 -- 97
2020-11-09 08:00:00 13.2 17 Sudoeste 28 Sudoeste 0 989 -- 96
2020-11-09 07:00:00 13.3 9 Sudoeste 24 Sur 0.7 988.3 -- 95
2020-11-09 06:00:00 13.2 16 Sur 24 Sudoeste 1.5 987.9 -- 95
2020-11-09 05:00:00 13.2 10 Sudoeste 21 Sur 3.1 987.5 -- 98
2020-11-09 04:00:00 13.2 13 Sur 22 Sudoeste 0.6 987.4 -- 98
2020-11-09 03:00:00 13.2 14 Sur 22 Sur 0 987.2 -- 97
2020-11-09 02:00:00 12.9 14 Sur -- -- -- 987.1 -- 98
2020-11-09 01:00:00 13.4 13 Sur 18 Sur 0 987 -- 98
2020-11-09 00:00:00 13.3 12 Sur 21 Sudoeste 0 987 -- 98
2020-11-08 23:00:00 13.3 13 Sur 22 Sur 0 986.8 -- 98
2020-11-08 22:00:00 13.4 14 Sur 21 Sur 0 986.5 -- 98
2020-11-08 21:00:00 13.3 13 Sur 28 Sudoeste 0.4 986.1 -- 96
2020-11-08 20:00:00 13.6 17 Sur 28 Sur 0.5 986 -- 95
2020-11-08 19:00:00 13.8 18 Sur 30 Sur 0 985.7 -- 92
2020-11-08 18:00:00 14.2 20 Sudoeste 35 Sur 0 985.3 -- 91
2020-11-08 17:00:00 14.3 15 Sur 37 Sur 0.3 985.1 -- 91
2020-11-08 16:00:00 15.5 22 Sur 41 Sur 0 984.6 -- 80
2020-11-08 15:00:00 16 19 Sur 42 Sur 0 984.6 -- 80
2020-11-08 14:00:00 16.4 30 Sur 52 Sur 0 984.4 -- 79
2020-11-08 13:00:00 17.3 30 Sur 48 Sur 0 984.4 -- 73
2020-11-08 12:00:00 16 20 Sur 37 Sur 0 984.9 -- 86
2020-11-08 11:00:00 14.7 18 Sur 39 Sur 0.1 984.5 -- 93
2020-11-08 10:00:00 14.1 17 Sur 39 Sur 0.6 984.3 -- 97
2020-11-08 09:00:00 13.8 24 Sur 48 Sudoeste 3 984 -- 97
2020-11-08 08:00:00 13.1 23 Sur 48 Sur 3.9 983.2 -- 98
2020-11-08 07:00:00 13.5 23 Sur 50 Sur 2.9 983.3 -- 93
2020-11-08 06:00:00 13.7 23 Sudoeste 37 Sur 11.6 984.2 -- 97
2020-11-08 05:00:00 14.5 24 Sur 42 Sur 0.1 983.8 -- 91
2020-11-08 04:00:00 14.2 23 Sur 41 Sur 0.1 984.4 -- 95
2020-11-08 03:00:00 14 18 Sur 32 Sur 0.1 984.8 -- 97
2020-11-08 02:00:00 13.8 22 Sur -- -- -- 985.4 -- 97
2020-11-08 01:00:00 13.8 21 Sudoeste 30 Sur 0.1 985.7 -- 97
2020-11-08 00:00:00 13.6 21 Sur 33 Sur 0.8 985.8 -- 97
2020-11-07 23:00:00 13.8 23 Sur 33 Sur 0 986 -- 95
2020-11-07 22:00:00 13.9 19 Sur 32 Sur 0 985.7 -- 95
2020-11-07 21:00:00 13.9 13 Sur 28 Sur 0 985.9 -- 96
2020-11-07 20:00:00 14.1 18 Sur 32 Sur 0.4 986 -- 96
2020-11-07 19:00:00 14.3 16 Sur 37 Sur 0 985.4 -- 95
2020-11-07 18:00:00 14.7 25 Sur 37 Sur 0.2 985.1 -- 94
2020-11-07 17:00:00 14.9 22 Sur 33 Sur 0.1 984.8 -- 94
2020-11-07 16:00:00 14.8 21 Sur 41 Sur 1.4 984.2 -- 95
2020-11-07 15:00:00 14.6 21 Sur 33 Sur 0.2 983.9 -- 94
2020-11-07 14:00:00 13.7 20 Sur 41 Sur 0 983.6 -- 97
2020-11-07 13:00:00 13.2 28 Sur 39 Sur 1 983.4 -- 96
2020-11-07 12:00:00 13.2 26 Sur 41 Sur 0.1 983.3 -- 95
2020-11-07 11:00:00 13.4 26 Sur 41 Sur 0 982.6 -- 92
2020-11-07 10:00:00 13 15 Sur 24 Sur 0 982 -- 91
2020-11-07 09:00:00 12 12 Sudoeste 21 Sur 0 981.2 -- 91
2020-11-07 08:00:00 11.9 13 Sur 22 Sur 0 980.4 -- 89
2020-11-07 07:00:00 12.1 12 Sur 28 Sur 0 980.6 -- 90
2020-11-07 06:00:00 12.5 15 Sur 26 Sur 0 979.8 -- 88
2020-11-07 05:00:00 12.5 15 Sur 24 Sur 0 979.1 -- 89
2020-11-07 04:00:00 12.3 11 Sudoeste 17 Sudoeste 0 979.2 -- 92
2020-11-07 03:00:00 12.8 8 Sur 17 Oeste 0 979.1 -- 86
2020-11-07 02:00:00 12.7 14 Sudoeste -- -- -- 979.2 -- 88
2020-11-07 01:00:00 12.5 16 Sur 24 Sur 0 979.1 -- 89
2020-11-07 00:00:00 12.5 14 Sudoeste 22 Sur 0 979 -- 91
2020-11-06 23:00:00 12.3 13 Sudoeste 17 Sudoeste 0 978.7 -- 91
2020-11-06 22:00:00 12.9 14 Sur 24 Sudoeste 0 978.3 -- 90
2020-11-06 21:00:00 12.9 9 Sudoeste 17 Sur 0 978 -- 92
2020-11-06 20:00:00 13.3 9 Sudoeste 22 Sur 0 978.2 -- 91
2020-11-06 19:00:00 13.5 13 Sur 24 Sudoeste 0 978 -- 89
2020-11-06 18:00:00 13.3 11 Sudoeste 18 Sur 0.3 977.9 -- 93
2020-11-06 17:00:00 13.7 9 Oeste 13 Sudoeste 0 977.5 -- 91
2020-11-06 16:00:00 13.7 6 Sur 21 Sudeste 0 977.3 -- 88
2020-11-06 15:00:00 13.4 5 Este 18 Sur 1.4 977.5 -- 94
2020-11-06 14:00:00 12.9 8 Sudoeste 45 Sur 2.5 979.3 -- 92
2020-11-06 13:00:00 13.2 18 Sur 39 Sur 1.6 980.1 -- 91
2020-11-06 12:00:00 13.6 18 Sur 39 Este 1.8 980.4 -- 88
2020-11-06 11:00:00 14.7 13 Sur 37 Sudeste 0.2 980.3 0.7 78
2020-11-06 10:00:00 14.1 10 Sudeste 35 Este 0.4 980 -- 75
2020-11-06 09:00:00 14.5 8 Este 17 Este 0 979.6 -- 64
2020-11-06 08:00:00 14.1 4 Norte 15 Nordeste 0 979.6 -- 67
2020-11-06 07:00:00 14.3 6 Norte 17 Sudoeste 0 979.9 -- 68
2020-11-06 06:00:00 15.8 6 Sur 13 Sudoeste 0 980.3 -- 59
2020-11-06 05:00:00 14.7 5 Este 21 Oeste 0 980 -- 65
2020-11-06 04:00:00 16 7 Sudeste 41 Este 0 980 -- 59
2020-11-06 03:00:00 13.3 9 Oeste 21 Este 0 980.4 -- 73
2020-11-06 02:00:00 14.6 6 Sur -- -- -- 981.2 -- 66
2020-11-06 01:00:00 15 8 Sudeste 33 Este 0 981.7 -- 64
2020-11-06 00:00:00 14.8 18 Este 39 Este 0 981.6 -- 67
2020-11-05 23:00:00 15.2 8 Este 22 Este 0 982.3 -- 70
2020-11-05 22:00:00 15 12 Este 52 Este 0 982.6 -- 75
2020-11-05 21:00:00 15.6 20 Este 45 Este 0 982.9 -- 70
2020-11-05 20:00:00 14.8 22 Este 42 Este 0.3 983.1 -- 76
2020-11-05 19:00:00 15.5 24 Este 42 Este 0 983.3 -- 72
2020-11-05 18:00:00 16.4 27 Este 48 Este 0 983.4 -- 63
2020-11-05 17:00:00 16.6 30 Este 50 Sudeste 0 983.5 -- 63
2020-11-05 16:00:00 16.7 25 Este 68 Este 0 983.2 -- 61
2020-11-05 15:00:00 17 30 Este 61 Este 0 983.1 -- 60
2020-11-05 14:00:00 16 37 Este 63 Este 0 983.7 -- 61
2020-11-05 13:00:00 16.4 34 Este 80 Este 0 984.3 -- 59
2020-11-05 12:00:00 15.8 45 Este 71 Este 0 984.1 -- 59
2020-11-05 11:00:00 14.4 28 Este 52 Este 0 985.1 -- 62
2020-11-05 10:00:00 13.5 17 Este 41 Este 0 985.2 -- 63
2020-11-05 09:00:00 13.3 17 Este 58 Este 0 985.2 -- 62
2020-11-05 08:00:00 13.4 29 Este 54 Este 0 984.5 -- 60
2020-11-05 07:00:00 13 28 Este 55 Este 0 984.8 -- 59
2020-11-05 06:00:00 12 30 Este 63 Este 0 985.2 -- 59
2020-11-05 05:00:00 12 34 Este 67 Este 0 985.2 -- 59
2020-11-05 04:00:00 11.5 40 Este 74 Este 0 985.7 -- 58
2020-11-05 03:00:00 11.1 31 Este 58 Este 0 986.4 -- 57
2020-11-05 02:00:00 10.9 25 Este 48 Este 0 986.4 -- 56
2020-11-05 01:00:00 11 23 Este 65 Este 0 986.7 -- 54
2020-11-05 00:00:00 11.4 43 Este 67 Este 0 986.6 -- 51